Location: Clinton NY
(43.0598°N, 75.3602°W)
Time: 17:20:58
(UTC-04:00)

Iridium 11 - Visible Passes

Search period start: 02 September 2014 00:00
Search period end: 12 September 2014 00:00
Orbit: 776 x 779 km, 86.4° (Epoch: 02 September)

Date Brightness Start Highest point End Pass type
(mag) Time Alt. Az. Time Alt. Az. Time Alt. Az.
02 Sep 8.1 01:17:17 14° NW 01:17:17 14° NW 01:18:21 10° NNW visible
02 Sep 7.6 23:03:23 18° NNE 23:03:23 18° NNE 23:04:54 10° NNE visible
03 Sep 7.8 00:43:51 19° NNW 00:43:51 19° NNW 00:45:39 10° NNW visible
03 Sep 7.9 22:29:57 12° NE 22:29:57 12° NE 22:30:29 10° NE visible
04 Sep 7.6 00:10:25 24° NNW 00:10:25 24° NNW 00:12:28 10° N visible
04 Sep 7.5 23:36:59 24° N 23:36:59 24° N 23:39:00 10° N visible
05 Sep 7.5 23:03:32 20° NNE 23:03:32 20° NNE 23:05:16 10° NNE visible
06 Sep 8.1 00:44:00 15° NW 00:44:00 15° NW 00:45:19 10° NNW visible
06 Sep 7.7 22:30:05 15° NE 22:30:05 15° NE 22:31:11 10° NNE visible
07 Sep 7.8 00:10:33 21° NNW 00:10:33 21° NNW 00:12:23 10° NNW visible
07 Sep 7.6 23:37:06 24° N 23:37:06 24° N 23:39:05 10° N visible
08 Sep 7.5 23:03:38 23° NNE 23:03:38 23° NNE 23:05:31 10° N visible
09 Sep 8.3 00:44:06 12° NW 00:44:06 12° NW 00:44:43 10° NW visible
09 Sep 7.6 22:30:10 18° NNE 22:30:10 18° NNE 22:31:39 10° NNE visible
10 Sep 8.0 00:10:38 17° NNW 00:10:38 17° NNW 00:12:10 10° NNW visible
10 Sep 7.8 21:56:42 13° NE 21:56:42 13° NE 21:57:23 10° NE visible
10 Sep 7.7 23:37:10 22° NNW 23:37:10 22° NNW 23:39:04 10° N visible
11 Sep 7.5 23:03:41 24° N 23:03:41 24° N 23:05:39 10° N visible
